Showing default

YAOGAN-39 01A, 57727

Orbit data source: Space-Track

YAOGAN-39 01A, 57727 is a payload satellite owned by PLA GAD (CN) in LEO that was launched on Thu, 31 Aug 2023 UTC via a CHANG ZHENG 2D launch vehicle from the Xichang Space Center, China (XSC). Payload-class satellites include a variety of spacecraft equipped with specific instruments for various scientific and technological missions. These include communications satellites like Starlink; space stations such as the ISS; scientific satellites like the Hubble; Earth observation satellites from companies like Planet Labs, Umbra, and HawkEye 360; GPS; miniature CubeSats for education and research; and military/defense satellites.

Loading next visibility...
Identifier
57727, 2023-130A
Orbit
LEO
Country
Flag of CNCN / PRC
Related business
Manufacturer
DFH
Mission
Operational Defense Sigint
Bus & Motor
Unknown
Mass
~300 kg wet, ~300 kg dry
Launch date (UTC)
2023-08-31 (2 years ago)
Launch vehicle
CHANG ZHENG 2D
Launch site
Xichang Space Center, China (XSC)
Object type
Payload
Rocket body
Debris
Shape & HBR
Box + 2 Pan, 2.5 m
Radar Cross Section
11.063 m², Large (>1 m²)

Expand to show TLE details & history
Last TLE update: 1 day ago

TLE from 1 day ago
0 YAOGAN-39 01A
1 57727U 23130A   25295.77117883  .00000126  00000-0  68208-5 0  9990
2 57727  35.0007 181.6849 0002037 192.2302 167.8363 15.22613986119494
Epoch: 2025-10-22T18:30Z
TLE epoch observation values (Epoch: 2025-10-22T18:30:29.850Z)
Latitude
-0.00005°
Longitude
-127.37956°
Altitude
498.236 km
Speed
7.617 km/s
True Right ascension
12h 06m 44s
True Declination
0° 00' 00"
Sunlit
Object was in daylight at epoch
Visualization orbit readout
Latitude
Unknown
Longitude
Unknown
Altitude
Unknown
Speed
Unknown
Apparent Right ascension
Unknown
Apparent Declination
Unknown
Sunlit
N/A
Visualization observer readout
Local Sidereal Time
00:53:33
Azimuth
Unknown
Elevation
Unknown
Doppler factor
Unknown
Orbital elements
Apogee altitude
502.61 km
Perigee altitude
499.808 km
Semi-major axis
6,879.346 km
Eccentricity
0.0002
Inclination
35.0007°
RAAN
181.6849°
Arg. of periapsis
192.2302°
True anomaly
167.84122°
Mean anomaly
167.8363°
Eccentric anomaly
167.83876°
Mean motion
3.80384 °/min
Orbital period
94.64 mins
BSTAR
0.0000068208
Loading maneuver chart data...
Computing Atmospheric mass density...
Loading historical data...
Loading historical data...
Loading historical data...
Loading historical data...
Loading historical data...
Loading historical data...
Loading historical data...
Other satellites on launch #130 in the year 2023 (2023-08-31 UTC)

Documentation

Showing up to 5 results
|